Year,Month,Day,Hour,Minute,Value (Times are PST for temperature in C)
2009,08,15,00,00,13.10
2009,08,15,00,01,13.00
2009,08,15,00,02,13.00
2009,08,15,00,03,13.00
2009,08,15,00,04,13.00
2009,08,15,00,05,13.00
2009,08,15,00,06,13.00
2009,08,15,00,07,12.90
2009,08,15,00,08,12.90
2009,08,15,00,09,12.90
2009,08,15,00,10,12.90
2009,08,15,00,11,12.90
2009,08,15,00,12,12.90
2009,08,15,00,16,12.90
2009,08,15,00,17,12.90
2009,08,15,00,18,12.80
2009,08,15,00,19,12.80
2009,08,15,00,20,12.80
2009,08,15,00,21,12.80
2009,08,15,00,22,12.80
2009,08,15,00,23,12.80
2009,08,15,00,24,12.80
2009,08,15,00,25,12.80
2009,08,15,00,26,12.80
2009,08,15,00,27,12.80
2009,08,15,00,28,12.70
2009,08,15,00,29,12.70
2009,08,15,00,30,12.70
2009,08,15,00,31,12.70
2009,08,15,00,32,12.70
2009,08,15,00,33,12.70
2009,08,15,00,34,12.70
2009,08,15,00,35,12.70
2009,08,15,00,36,12.60
2009,08,15,00,37,12.60
2009,08,15,00,38,12.60
2009,08,15,00,39,12.60
2009,08,15,00,40,12.60
2009,08,15,00,41,12.60
2009,08,15,00,42,12.60
2009,08,15,00,43,12.60
2009,08,15,00,44,12.60
2009,08,15,00,45,12.60
2009,08,15,00,46,12.60
2009,08,15,00,47,12.60
2009,08,15,00,48,12.60
2009,08,15,00,49,12.50
2009,08,15,00,50,12.50
2009,08,15,00,51,12.50
2009,08,15,00,52,12.50
2009,08,15,00,53,12.50
2009,08,15,00,54,12.50
2009,08,15,00,55,12.50
2009,08,15,00,56,12.50
2009,08,15,00,57,12.50
2009,08,15,00,58,12.50
2009,08,15,00,59,12.50
2009,08,15,01,00,12.50
2009,08,15,01,01,12.50
2009,08,15,01,02,12.50
2009,08,15,01,03,12.50
2009,08,15,01,04,12.50
2009,08,15,01,05,12.50
2009,08,15,01,06,12.50
2009,08,15,01,07,12.50
2009,08,15,01,08,12.50
2009,08,15,01,09,12.50
2009,08,15,01,10,12.50
2009,08,15,01,11,12.50
2009,08,15,01,12,12.50
2009,08,15,01,13,12.50
2009,08,15,01,14,12.50
2009,08,15,01,15,12.50
2009,08,15,01,16,12.50
2009,08,15,01,17,12.50
2009,08,15,01,18,12.50
2009,08,15,01,19,12.50
2009,08,15,01,20,12.50
2009,08,15,01,21,12.50
2009,08,15,01,22,12.50
2009,08,15,01,23,12.50
2009,08,15,01,24,12.60
2009,08,15,01,25,12.60
2009,08,15,01,26,12.60
2009,08,15,01,27,12.60
2009,08,15,01,28,12.60
2009,08,15,01,29,12.70
2009,08,15,01,30,12.70
2009,08,15,01,31,12.70
2009,08,15,01,32,12.70
2009,08,15,01,33,12.70
2009,08,15,01,34,12.70
2009,08,15,01,35,12.70
2009,08,15,01,36,12.70
2009,08,15,01,37,12.70
2009,08,15,01,38,12.70
2009,08,15,01,39,12.70
2009,08,15,01,40,12.70
2009,08,15,01,41,12.70
2009,08,15,01,42,12.70
2009,08,15,01,43,12.70
2009,08,15,01,44,12.70
2009,08,15,01,45,12.70
2009,08,15,01,46,12.70
2009,08,15,01,47,12.70
2009,08,15,01,48,12.70
2009,08,15,01,49,12.70
2009,08,15,01,50,12.70
2009,08,15,01,51,12.70
2009,08,15,01,52,12.70
2009,08,15,01,53,12.70
2009,08,15,01,54,12.70
2009,08,15,01,55,12.70
2009,08,15,01,56,12.70
2009,08,15,01,57,12.70
2009,08,15,01,58,12.70
2009,08,15,01,59,12.70
2009,08,15,02,00,12.70
2009,08,15,02,01,12.70
2009,08,15,02,02,12.70
2009,08,15,02,03,12.70
2009,08,15,02,04,12.70
2009,08,15,02,05,12.70
2009,08,15,02,06,12.70
2009,08,15,02,07,12.70
2009,08,15,02,08,12.70
2009,08,15,02,09,12.60
2009,08,15,02,10,12.60
2009,08,15,02,11,12.60
2009,08,15,02,12,12.60
2009,08,15,02,13,12.60
2009,08,15,02,14,12.50
2009,08,15,02,15,12.50
2009,08,15,02,16,12.50
2009,08,15,02,17,12.50
2009,08,15,02,18,12.50
2009,08,15,02,19,12.50
2009,08,15,02,20,12.50
2009,08,15,02,21,12.50
2009,08,15,02,22,12.50
2009,08,15,02,23,12.40
2009,08,15,02,24,12.40
2009,08,15,02,25,12.40
2009,08,15,02,26,12.40
2009,08,15,02,27,12.30
2009,08,15,02,28,12.30
2009,08,15,02,29,12.30
2009,08,15,02,30,12.30
2009,08,15,02,31,12.30
2009,08,15,02,32,12.30
2009,08,15,02,33,12.30
2009,08,15,02,34,12.30
2009,08,15,02,35,12.30
2009,08,15,02,36,12.20
2009,08,15,02,37,12.20
2009,08,15,02,38,12.20
2009,08,15,02,39,12.20
2009,08,15,02,40,12.20
2009,08,15,02,41,12.20
2009,08,15,02,42,12.10
2009,08,15,02,43,12.10
2009,08,15,02,44,12.10
2009,08,15,02,45,12.10
2009,08,15,02,46,12.10
2009,08,15,02,47,12.10
2009,08,15,02,48,12.00
2009,08,15,02,49,12.00
2009,08,15,02,50,12.00
2009,08,15,02,51,12.00
2009,08,15,02,52,11.90
2009,08,15,02,53,11.90
2009,08,15,02,54,11.90
2009,08,15,02,55,11.90
2009,08,15,02,56,11.90
2009,08,15,02,57,11.80
2009,08,15,02,58,11.80
2009,08,15,02,59,11.80
2009,08,15,03,00,11.80
2009,08,15,03,01,11.80
2009,08,15,03,02,11.80
2009,08,15,03,03,11.80
2009,08,15,03,04,11.80
2009,08,15,03,05,11.80
2009,08,15,03,06,11.80
2009,08,15,03,07,11.70
2009,08,15,03,08,11.70
2009,08,15,03,09,11.70
2009,08,15,03,10,11.70
2009,08,15,03,11,11.60
2009,08,15,03,12,11.60
2009,08,15,03,13,11.60
2009,08,15,03,14,11.60
2009,08,15,03,15,11.60
2009,08,15,03,16,11.60
2009,08,15,03,17,11.60
2009,08,15,03,18,11.60
2009,08,15,03,19,11.50
2009,08,15,03,20,11.40
2009,08,15,03,21,11.40
2009,08,15,03,22,11.40
2009,08,15,03,23,11.40
2009,08,15,03,24,11.40
2009,08,15,03,25,11.40
2009,08,15,03,26,11.40
2009,08,15,03,27,11.30
2009,08,15,03,28,11.30
2009,08,15,03,29,11.30
2009,08,15,03,30,11.30
2009,08,15,03,31,11.30
2009,08,15,03,32,11.20
2009,08,15,03,33,11.20
2009,08,15,03,34,11.20
2009,08,15,03,35,11.20
2009,08,15,03,36,11.20
2009,08,15,03,37,11.20
2009,08,15,03,38,11.20
2009,08,15,03,39,11.20
2009,08,15,03,40,11.20
2009,08,15,03,41,11.20
2009,08,15,03,42,11.20
2009,08,15,03,43,11.20
2009,08,15,03,44,11.20
2009,08,15,03,45,11.20
2009,08,15,03,46,11.10
2009,08,15,03,47,11.10
2009,08,15,03,48,11.20
2009,08,15,03,49,11.20
2009,08,15,03,50,11.20
2009,08,15,03,51,11.10
2009,08,15,03,52,11.10
2009,08,15,03,53,11.10
2009,08,15,03,54,11.20
2009,08,15,03,55,11.10
2009,08,15,03,56,11.10
2009,08,15,03,57,11.20
2009,08,15,03,58,11.10
2009,08,15,03,59,11.10
2009,08,15,04,00,11.10
2009,08,15,04,01,11.10
2009,08,15,04,02,11.10
2009,08,15,04,03,11.10
2009,08,15,04,04,11.20
2009,08,15,04,05,11.20
2009,08,15,04,06,11.20
2009,08,15,04,07,11.20
2009,08,15,04,08,11.20
2009,08,15,04,09,11.20
2009,08,15,04,10,11.20
2009,08,15,04,11,11.20
2009,08,15,04,12,11.20
2009,08,15,04,13,11.20
2009,08,15,04,14,11.20
2009,08,15,04,15,11.20
2009,08,15,04,16,11.20
2009,08,15,04,17,11.20
2009,08,15,04,18,11.20
2009,08,15,04,19,11.20
2009,08,15,04,20,11.20
2009,08,15,04,21,11.20
2009,08,15,04,22,11.20
2009,08,15,04,23,11.20
2009,08,15,04,24,11.20
2009,08,15,04,25,11.20
2009,08,15,04,26,11.20
2009,08,15,04,27,11.20
2009,08,15,04,28,11.20
2009,08,15,04,29,11.20
2009,08,15,04,30,11.20
2009,08,15,04,31,11.20
2009,08,15,04,32,11.20
2009,08,15,04,33,11.20
2009,08,15,04,34,11.20
2009,08,15,04,35,11.20
2009,08,15,04,36,11.20
2009,08,15,04,37,11.20
2009,08,15,04,38,11.10
2009,08,15,04,39,11.10
2009,08,15,04,40,11.10
2009,08,15,04,41,11.10
2009,08,15,04,42,11.10
2009,08,15,04,43,11.10
2009,08,15,04,44,11.10
2009,08,15,04,45,11.10
2009,08,15,04,46,11.10
2009,08,15,04,47,11.10
2009,08,15,04,48,11.10
2009,08,15,04,49,11.10
2009,08,15,04,50,11.10
2009,08,15,04,51,11.10
2009,08,15,04,52,11.10
2009,08,15,04,53,11.10
2009,08,15,04,54,11.10
2009,08,15,04,55,11.10
2009,08,15,04,56,11.00
2009,08,15,04,57,10.90
2009,08,15,04,58,10.90
2009,08,15,04,59,10.90
2009,08,15,05,00,10.90
2009,08,15,05,01,10.90
2009,08,15,05,02,10.90
2009,08,15,05,03,10.90
2009,08,15,05,04,10.90
2009,08,15,05,05,10.90
2009,08,15,05,06,10.90
2009,08,15,05,07,10.90
2009,08,15,05,08,10.90
2009,08,15,05,09,10.90
2009,08,15,05,10,11.00
2009,08,15,05,11,11.10
2009,08,15,05,12,11.10
2009,08,15,05,13,11.10
2009,08,15,05,14,11.10
2009,08,15,05,15,11.10
2009,08,15,05,16,11.10
2009,08,15,05,17,11.20
2009,08,15,05,18,11.20
2009,08,15,05,19,11.20
2009,08,15,05,20,11.20
2009,08,15,05,21,11.30
2009,08,15,05,22,11.30
2009,08,15,05,23,11.30
2009,08,15,05,24,11.30
2009,08,15,05,25,11.30
2009,08,15,05,26,11.30
2009,08,15,05,27,11.30
2009,08,15,05,28,11.20
2009,08,15,05,29,11.20
2009,08,15,05,30,11.20
2009,08,15,05,31,11.20
2009,08,15,05,32,11.20
2009,08,15,05,33,11.20
2009,08,15,05,34,11.20
2009,08,15,05,35,11.20
2009,08,15,05,36,11.20
2009,08,15,05,37,11.20
2009,08,15,05,38,11.20
2009,08,15,05,39,11.20
2009,08,15,05,40,11.20
2009,08,15,05,41,11.20
2009,08,15,05,42,11.20
2009,08,15,05,43,11.20
2009,08,15,05,44,11.20
2009,08,15,05,45,11.20
2009,08,15,05,46,11.20
2009,08,15,05,47,11.20
2009,08,15,05,48,11.20
2009,08,15,05,49,11.20
2009,08,15,05,50,11.30
2009,08,15,05,51,11.30
2009,08,15,05,52,11.30
2009,08,15,05,53,11.30
2009,08,15,05,54,11.30
2009,08,15,05,55,11.30
2009,08,15,05,56,11.30
2009,08,15,05,57,11.30
2009,08,15,05,58,11.30
2009,08,15,05,59,11.30
2009,08,15,06,00,11.30
2009,08,15,06,01,11.30
2009,08,15,06,02,11.30
2009,08,15,06,03,11.30
2009,08,15,06,04,11.30
2009,08,15,06,05,11.30
2009,08,15,06,06,11.30
2009,08,15,06,07,11.30
2009,08,15,06,08,11.40
2009,08,15,06,09,11.40
2009,08,15,06,10,11.40
2009,08,15,06,11,11.40
2009,08,15,06,12,11.40
2009,08,15,06,13,11.40
2009,08,15,06,14,11.40
2009,08,15,06,15,11.40
2009,08,15,06,16,11.40
2009,08,15,06,17,11.40
2009,08,15,06,18,11.40
2009,08,15,06,19,11.40
2009,08,15,06,20,11.40
2009,08,15,06,21,11.40
2009,08,15,06,22,11.40
2009,08,15,06,23,11.50
2009,08,15,06,24,11.60
2009,08,15,06,25,11.60
2009,08,15,06,26,11.60
2009,08,15,06,27,11.60
2009,08,15,06,28,11.60
2009,08,15,06,29,11.60
2009,08,15,06,30,11.60
2009,08,15,06,31,11.60
2009,08,15,06,32,11.60
2009,08,15,06,33,11.60
2009,08,15,06,34,11.60
2009,08,15,06,35,11.60
2009,08,15,06,36,11.60
2009,08,15,06,37,11.60
2009,08,15,06,38,11.60
2009,08,15,06,39,11.60
2009,08,15,06,40,11.60
2009,08,15,06,41,11.60
2009,08,15,06,42,11.60
2009,08,15,06,43,11.60
2009,08,15,06,44,11.60
2009,08,15,06,45,11.60
2009,08,15,06,46,11.60
2009,08,15,06,47,11.70
2009,08,15,06,48,11.70
2009,08,15,06,49,11.70
2009,08,15,06,50,11.70
2009,08,15,06,51,11.70
2009,08,15,06,52,11.70
2009,08,15,06,53,11.70
2009,08,15,06,54,11.70
2009,08,15,06,55,11.70
2009,08,15,06,56,11.80
2009,08,15,06,57,11.80
2009,08,15,06,58,11.80
2009,08,15,06,59,11.80
2009,08,15,07,00,11.80
2009,08,15,07,01,11.80
2009,08,15,07,02,11.80
2009,08,15,07,03,11.80
2009,08,15,07,04,11.80
2009,08,15,07,05,11.80
2009,08,15,07,06,11.80
2009,08,15,07,07,11.80
2009,08,15,07,08,11.80
2009,08,15,07,09,11.80
2009,08,15,07,10,11.80
2009,08,15,07,11,11.80
2009,08,15,07,12,11.80
2009,08,15,07,13,11.80
2009,08,15,07,14,11.80
2009,08,15,07,15,11.80
2009,08,15,07,16,11.80
2009,08,15,07,17,11.80
2009,08,15,07,18,11.80
2009,08,15,07,19,11.90
2009,08,15,07,20,11.90
2009,08,15,07,21,11.90
2009,08,15,07,22,11.90
2009,08,15,07,23,11.90
2009,08,15,07,24,11.90
2009,08,15,07,25,11.90
2009,08,15,07,26,11.90
2009,08,15,07,27,11.90
2009,08,15,07,28,11.90
2009,08,15,07,29,11.90
2009,08,15,07,30,11.90
2009,08,15,07,31,11.90
2009,08,15,07,32,11.90
2009,08,15,07,33,11.90
2009,08,15,07,34,11.90
2009,08,15,07,35,11.90
2009,08,15,07,36,11.90
2009,08,15,07,37,11.90
2009,08,15,07,38,11.90
2009,08,15,07,39,11.90
2009,08,15,07,40,11.90
2009,08,15,07,41,11.90
2009,08,15,07,42,11.90
2009,08,15,07,43,11.90
2009,08,15,07,44,11.90
2009,08,15,07,45,11.90
2009,08,15,07,46,11.90
2009,08,15,07,47,11.90
2009,08,15,07,48,11.90
2009,08,15,07,49,11.90
2009,08,15,07,50,11.90
2009,08,15,07,51,11.90
2009,08,15,07,52,11.90
2009,08,15,07,53,11.90
2009,08,15,07,54,11.90
2009,08,15,07,55,11.90
2009,08,15,07,56,11.90
2009,08,15,07,57,11.90
2009,08,15,07,58,11.90
2009,08,15,07,59,11.90
2009,08,15,08,00,11.90
2009,08,15,08,01,12.00
2009,08,15,08,02,12.00
2009,08,15,08,03,12.00
2009,08,15,08,04,12.00
2009,08,15,08,05,12.00
2009,08,15,08,06,12.00
2009,08,15,08,07,12.00
2009,08,15,08,08,12.00
2009,08,15,08,09,12.00
2009,08,15,08,10,12.00
2009,08,15,08,11,12.00
2009,08,15,08,12,12.00
2009,08,15,08,13,12.00
2009,08,15,08,14,12.00
2009,08,15,08,15,12.00
2009,08,15,08,16,12.00
2009,08,15,08,17,12.10
2009,08,15,08,18,12.10
2009,08,15,08,19,12.10
2009,08,15,08,20,12.10
2009,08,15,08,21,12.10
2009,08,15,08,22,12.20
2009,08,15,08,23,12.20
2009,08,15,08,24,12.20
2009,08,15,08,25,12.20
2009,08,15,08,26,12.30
2009,08,15,08,27,12.30
2009,08,15,08,28,12.30
2009,08,15,08,29,12.30
2009,08,15,08,30,12.30
2009,08,15,08,31,12.30
2009,08,15,08,32,12.30
2009,08,15,08,33,12.30
2009,08,15,08,34,12.30
2009,08,15,08,35,12.30
2009,08,15,08,36,12.30
2009,08,15,08,37,12.40
2009,08,15,08,38,12.40
2009,08,15,08,39,12.40
2009,08,15,08,40,12.40
2009,08,15,08,41,12.40
2009,08,15,08,42,12.40
2009,08,15,08,43,12.50
2009,08,15,08,44,12.50
2009,08,15,08,45,12.50
2009,08,15,08,46,12.50
2009,08,15,08,47,12.60
2009,08,15,08,48,12.60
2009,08,15,08,49,12.60
2009,08,15,08,50,12.60
2009,08,15,08,51,12.70
2009,08,15,08,52,12.70
2009,08,15,08,53,12.70
2009,08,15,08,54,12.70
2009,08,15,08,55,12.70
2009,08,15,08,56,12.80
2009,08,15,08,57,12.80
2009,08,15,08,58,12.80
2009,08,15,08,59,12.80
2009,08,15,09,00,12.80
2009,08,15,09,01,12.80
2009,08,15,09,02,12.80
2009,08,15,09,03,12.80
2009,08,15,09,04,12.80
2009,08,15,09,05,12.80
2009,08,15,09,06,12.80
2009,08,15,09,07,12.80
2009,08,15,09,08,12.90
2009,08,15,09,09,12.90
2009,08,15,09,10,12.90
2009,08,15,09,11,12.90
2009,08,15,09,12,13.00
2009,08,15,09,13,13.00
2009,08,15,09,14,13.00
2009,08,15,09,15,13.00
2009,08,15,09,16,13.00
2009,08,15,09,17,13.00
2009,08,15,09,18,13.00
2009,08,15,09,19,13.00
2009,08,15,09,20,13.00
2009,08,15,09,21,13.10
2009,08,15,09,22,13.10
2009,08,15,09,23,13.10
2009,08,15,09,24,13.10
2009,08,15,09,25,13.10
2009,08,15,09,26,13.10
2009,08,15,09,27,13.10
2009,08,15,09,28,13.10
2009,08,15,09,29,13.10
2009,08,15,09,30,13.10
2009,08,15,09,31,13.20
2009,08,15,09,32,13.20
2009,08,15,09,33,13.20
2009,08,15,09,34,13.20
2009,08,15,09,35,13.20
2009,08,15,09,36,13.20
2009,08,15,09,37,13.30
2009,08,15,09,38,13.30
2009,08,15,09,39,13.30
2009,08,15,09,40,13.30
2009,08,15,09,41,13.30
2009,08,15,09,42,13.30
2009,08,15,09,43,13.30
2009,08,15,09,44,13.40
2009,08,15,09,45,13.40
2009,08,15,09,46,13.40
2009,08,15,09,47,13.40
2009,08,15,09,48,13.50
2009,08,15,09,49,13.50
2009,08,15,09,50,13.50
2009,08,15,09,51,13.50
2009,08,15,09,52,13.50
2009,08,15,09,53,13.50
2009,08,15,09,54,13.50
2009,08,15,09,55,13.50
2009,08,15,09,56,13.50
2009,08,15,09,57,13.60
2009,08,15,09,58,13.60
2009,08,15,09,59,13.60
2009,08,15,10,00,13.60
2009,08,15,10,01,13.60
2009,08,15,10,02,13.60
2009,08,15,10,03,13.60
2009,08,15,10,04,13.60
2009,08,15,10,05,13.60
2009,08,15,10,06,13.60
2009,08,15,10,07,13.60
2009,08,15,10,08,13.60
2009,08,15,10,09,13.50
2009,08,15,10,10,13.50
2009,08,15,10,11,13.50
2009,08,15,10,12,13.50
2009,08,15,10,13,13.50
2009,08,15,10,14,13.50
2009,08,15,10,15,13.50
2009,08,15,10,16,13.50
2009,08,15,10,17,13.50
2009,08,15,10,18,13.50
2009,08,15,10,19,13.50
2009,08,15,10,20,13.50
2009,08,15,10,21,13.50
2009,08,15,10,22,13.50
2009,08,15,10,23,13.50
2009,08,15,10,24,13.50
2009,08,15,10,25,13.50
2009,08,15,10,26,13.50
2009,08,15,10,27,13.50
2009,08,15,10,28,13.50
2009,08,15,10,29,13.50
2009,08,15,10,30,13.50
2009,08,15,10,31,13.60
2009,08,15,10,32,13.60
2009,08,15,10,33,13.60
2009,08,15,10,34,13.60
2009,08,15,10,35,13.70
2009,08,15,10,36,13.70
2009,08,15,10,37,13.70
2009,08,15,10,38,13.70
2009,08,15,10,39,13.80
2009,08,15,10,40,13.80
2009,08,15,10,41,13.80
2009,08,15,10,42,13.90
2009,08,15,10,43,13.90
2009,08,15,10,44,14.00
2009,08,15,10,45,14.00
2009,08,15,10,46,14.00
2009,08,15,10,47,14.10
2009,08,15,10,48,14.10
2009,08,15,10,49,14.10
2009,08,15,10,50,14.10
2009,08,15,10,51,14.10
2009,08,15,10,52,14.10
2009,08,15,10,53,14.10
2009,08,15,10,54,14.10
2009,08,15,10,55,14.10
2009,08,15,10,56,14.10
2009,08,15,10,57,14.20
2009,08,15,10,58,14.20
2009,08,15,10,59,14.20
2009,08,15,11,00,14.20
2009,08,15,11,01,14.30
2009,08,15,11,02,14.40
2009,08,15,11,03,14.40
2009,08,15,11,04,14.50
2009,08,15,11,05,14.60
2009,08,15,11,06,14.70
2009,08,15,11,07,14.70
2009,08,15,11,08,14.80
2009,08,15,11,09,14.80
2009,08,15,11,10,14.70
2009,08,15,11,11,14.70
2009,08,15,11,12,14.60
2009,08,15,11,13,14.60
2009,08,15,11,14,14.60
2009,08,15,11,15,14.50
2009,08,15,11,16,14.50
2009,08,15,11,17,14.50
2009,08,15,11,18,14.50
2009,08,15,11,19,14.50
2009,08,15,11,20,14.50
2009,08,15,11,21,14.60
2009,08,15,11,22,14.60
2009,08,15,11,23,14.70
2009,08,15,11,24,14.80
2009,08,15,11,25,14.80
2009,08,15,11,26,14.80
2009,08,15,11,27,14.80
2009,08,15,11,28,14.80
2009,08,15,11,29,14.80
2009,08,15,11,30,14.80
2009,08,15,11,31,14.80
2009,08,15,11,32,14.80
2009,08,15,11,33,14.80
2009,08,15,11,34,14.80
2009,08,15,11,35,14.80
2009,08,15,11,36,14.80
2009,08,15,11,37,14.90
2009,08,15,11,38,14.90
2009,08,15,11,39,14.90
2009,08,15,11,40,14.90
2009,08,15,11,41,14.90
2009,08,15,11,42,14.90
2009,08,15,11,43,14.90
2009,08,15,11,44,14.90
2009,08,15,11,45,15.00
2009,08,15,11,46,15.00
2009,08,15,11,47,15.10
2009,08,15,11,48,15.10
2009,08,15,11,49,15.20
2009,08,15,11,50,15.30
2009,08,15,11,51,15.30
2009,08,15,11,52,15.30
2009,08,15,11,53,15.30
2009,08,15,11,54,15.30
2009,08,15,11,55,15.40
2009,08,15,11,56,15.50
2009,08,15,11,57,15.50
2009,08,15,11,58,15.60
2009,08,15,11,59,15.60
2009,08,15,12,00,15.70
2009,08,15,12,01,15.70
2009,08,15,12,02,15.80
2009,08,15,12,03,15.80
2009,08,15,12,04,15.80
2009,08,15,12,05,15.80
2009,08,15,12,06,15.80
2009,08,15,12,07,15.80
2009,08,15,12,08,15.80
2009,08,15,12,09,15.80
2009,08,15,12,10,15.80
2009,08,15,12,11,15.80
2009,08,15,12,12,15.80
2009,08,15,12,13,15.80
2009,08,15,12,14,15.80
2009,08,15,12,15,15.90
2009,08,15,12,16,15.90
2009,08,15,12,17,15.90
2009,08,15,12,18,15.90
2009,08,15,12,19,15.90
2009,08,15,12,20,15.90
2009,08,15,12,21,15.90
2009,08,15,12,22,15.90
2009,08,15,12,23,15.80
2009,08,15,12,24,15.90
2009,08,15,12,25,15.90
2009,08,15,12,26,15.90
2009,08,15,12,27,16.00
2009,08,15,12,28,16.10
2009,08,15,12,29,16.10
2009,08,15,12,30,16.10
2009,08,15,12,31,16.00
2009,08,15,12,32,15.90
2009,08,15,12,33,15.90
2009,08,15,12,34,16.00
2009,08,15,12,35,16.00
2009,08,15,12,36,15.90
2009,08,15,12,37,15.90
2009,08,15,12,38,15.90
2009,08,15,12,39,15.90
2009,08,15,12,40,16.10
2009,08,15,12,41,16.10
2009,08,15,12,42,16.10
2009,08,15,12,43,16.10
2009,08,15,12,44,16.20
2009,08,15,12,45,16.20
2009,08,15,12,46,16.30
2009,08,15,12,47,16.30
2009,08,15,12,48,16.30
2009,08,15,12,49,16.30
2009,08,15,12,50,16.30
2009,08,15,12,51,16.40
2009,08,15,12,52,16.50
2009,08,15,12,53,16.60
2009,08,15,12,54,16.60
2009,08,15,12,55,16.60
2009,08,15,12,56,16.60
2009,08,15,12,57,16.60
2009,08,15,12,58,16.70
2009,08,15,12,59,16.70
2009,08,15,13,00,16.70
2009,08,15,13,01,16.70
2009,08,15,13,02,16.70
2009,08,15,13,03,16.80
2009,08,15,13,04,16.80
2009,08,15,13,05,16.90
2009,08,15,13,06,16.90
2009,08,15,13,07,16.90
2009,08,15,13,08,16.90
2009,08,15,13,09,16.90
2009,08,15,13,10,16.90
2009,08,15,13,11,16.90
2009,08,15,13,12,16.80
2009,08,15,13,13,16.80
2009,08,15,13,14,16.70
2009,08,15,13,15,16.70
2009,08,15,13,16,16.70
2009,08,15,13,17,16.70
2009,08,15,13,18,16.70
2009,08,15,13,19,16.60
2009,08,15,13,20,16.60
2009,08,15,13,21,16.50
2009,08,15,13,22,16.40
2009,08,15,13,23,16.40
2009,08,15,13,24,16.40
2009,08,15,13,25,16.50
2009,08,15,13,26,16.60
2009,08,15,13,27,16.60
2009,08,15,13,28,16.60
2009,08,15,13,29,16.60
2009,08,15,13,30,16.60
2009,08,15,13,31,16.50
2009,08,15,13,32,16.40
2009,08,15,13,33,16.40
2009,08,15,13,34,16.40
2009,08,15,13,35,16.30
2009,08,15,13,36,16.30
2009,08,15,13,37,16.30
2009,08,15,13,38,16.30
2009,08,15,13,39,16.30
2009,08,15,13,40,16.30
2009,08,15,13,41,16.30
2009,08,15,13,42,16.30
2009,08,15,13,43,16.30
2009,08,15,13,44,16.30
2009,08,15,13,45,16.40
2009,08,15,13,46,16.40
2009,08,15,13,47,16.40
2009,08,15,13,48,16.40
2009,08,15,13,49,16.40
2009,08,15,13,50,16.40
2009,08,15,13,51,16.50
2009,08,15,13,52,16.60
2009,08,15,13,53,16.60
2009,08,15,13,54,16.70
2009,08,15,13,55,16.70
2009,08,15,13,56,16.70
2009,08,15,13,57,16.90
2009,08,15,13,58,17.00
2009,08,15,13,59,17.10
2009,08,15,14,00,17.20
2009,08,15,14,01,17.20
2009,08,15,14,02,17.20
2009,08,15,14,03,17.10
2009,08,15,14,04,17.10
2009,08,15,14,05,17.10
2009,08,15,14,06,17.10
2009,08,15,14,07,17.10
2009,08,15,14,08,17.10
2009,08,15,14,09,17.10
2009,08,15,14,10,17.10
2009,08,15,14,11,17.10
2009,08,15,14,12,17.00
2009,08,15,14,13,17.00
2009,08,15,14,14,17.00
2009,08,15,14,15,17.10
2009,08,15,14,16,17.20
2009,08,15,14,17,17.30
2009,08,15,14,18,17.30
2009,08,15,14,19,17.50
2009,08,15,14,20,17.60
2009,08,15,14,21,17.70
2009,08,15,14,22,17.70
2009,08,15,14,23,17.70
2009,08,15,14,24,17.70
2009,08,15,14,25,17.60
2009,08,15,14,26,17.50
2009,08,15,14,27,17.40
2009,08,15,14,28,17.30
2009,08,15,14,29,17.50
2009,08,15,14,30,17.50
2009,08,15,14,31,17.40
2009,08,15,14,32,17.50
2009,08,15,14,33,17.50
2009,08,15,14,34,17.60
2009,08,15,14,35,17.70
2009,08,15,14,36,17.80
2009,08,15,14,37,18.00
2009,08,15,14,38,18.10
2009,08,15,14,39,18.10
2009,08,15,14,40,18.10
2009,08,15,14,41,18.20
2009,08,15,14,42,18.20
2009,08,15,14,43,18.30
2009,08,15,14,44,18.30
2009,08,15,14,45,18.30
2009,08,15,14,46,18.30
2009,08,15,14,47,18.20
2009,08,15,14,48,18.20
2009,08,15,14,49,18.20
2009,08,15,14,50,18.20
2009,08,15,14,51,18.20
2009,08,15,14,52,18.20
2009,08,15,14,53,18.10
2009,08,15,14,54,18.00
2009,08,15,14,55,17.90
2009,08,15,14,56,17.90
2009,08,15,14,57,17.90
2009,08,15,14,58,17.90
2009,08,15,14,59,18.10
2009,08,15,15,00,18.10
2009,08,15,15,01,18.20
2009,08,15,15,02,18.30
2009,08,15,15,03,18.20
2009,08,15,15,04,18.00
2009,08,15,15,05,17.90
2009,08,15,15,06,17.90
2009,08,15,15,07,17.90
2009,08,15,15,08,17.90
2009,08,15,15,09,17.90
2009,08,15,15,10,18.00
2009,08,15,15,11,18.10
2009,08,15,15,12,18.20
2009,08,15,15,13,18.30
2009,08,15,15,14,18.50
2009,08,15,15,15,18.50
2009,08,15,15,16,18.40
2009,08,15,15,17,18.30
2009,08,15,15,18,18.20
2009,08,15,15,19,18.20
2009,08,15,15,20,18.30
2009,08,15,15,21,18.40
2009,08,15,15,22,18.40
2009,08,15,15,23,18.40
2009,08,15,15,24,18.30
2009,08,15,15,25,18.20
2009,08,15,15,26,18.10
2009,08,15,15,27,18.10
2009,08,15,15,28,18.10
2009,08,15,15,29,18.10
2009,08,15,15,30,18.20
2009,08,15,15,31,18.20
2009,08,15,15,32,18.20
2009,08,15,15,33,18.30
2009,08,15,15,34,18.40
2009,08,15,15,35,18.40
2009,08,15,15,36,18.40
2009,08,15,15,37,18.30
2009,08,15,15,38,18.20
2009,08,15,15,39,18.10
2009,08,15,15,40,18.00
2009,08,15,15,41,17.90
2009,08,15,15,42,17.80
2009,08,15,15,43,17.60
2009,08,15,15,44,17.50
2009,08,15,15,45,17.40
2009,08,15,15,46,17.30
2009,08,15,15,47,17.30
2009,08,15,15,48,17.30
2009,08,15,15,49,17.30
2009,08,15,15,50,17.30
2009,08,15,15,51,17.30
2009,08,15,15,52,17.30
2009,08,15,15,53,17.30
2009,08,15,15,54,17.30
2009,08,15,15,55,17.20
2009,08,15,15,56,17.20
2009,08,15,15,57,17.20
2009,08,15,15,58,17.10
2009,08,15,15,59,17.00
2009,08,15,16,00,17.00
2009,08,15,16,01,17.10
2009,08,15,16,02,17.20
2009,08,15,16,03,17.20
2009,08,15,16,04,17.20
2009,08,15,16,05,17.30
2009,08,15,16,06,17.30
2009,08,15,16,07,17.30
2009,08,15,16,08,17.30
2009,08,15,16,09,17.30
2009,08,15,16,10,17.40
2009,08,15,16,11,17.40
2009,08,15,16,12,17.40
2009,08,15,16,13,17.30
2009,08,15,16,14,17.30
2009,08,15,16,15,17.30
2009,08,15,16,16,17.30
2009,08,15,16,17,17.30
2009,08,15,16,18,17.30
2009,08,15,16,19,17.30
2009,08,15,16,20,17.30
2009,08,15,16,21,17.30
2009,08,15,16,22,17.30
2009,08,15,16,23,17.30
2009,08,15,16,24,17.20
2009,08,15,16,25,17.10
2009,08,15,16,26,17.10
2009,08,15,16,27,17.00
2009,08,15,16,28,17.00
2009,08,15,16,29,16.90
2009,08,15,16,30,16.90
2009,08,15,16,31,16.90
2009,08,15,16,32,16.80
2009,08,15,16,33,16.80
2009,08,15,16,34,16.80
2009,08,15,16,35,16.80
2009,08,15,16,36,16.70
2009,08,15,16,37,16.70
2009,08,15,16,38,16.70
2009,08,15,16,39,16.70
2009,08,15,16,40,16.70
2009,08,15,16,41,16.70
2009,08,15,16,42,16.70
2009,08,15,16,43,16.60
2009,08,15,16,44,16.60
2009,08,15,16,45,16.60
2009,08,15,16,46,16.60
2009,08,15,16,47,16.60
2009,08,15,16,48,16.50
2009,08,15,16,49,16.50
2009,08,15,16,50,16.60
2009,08,15,16,51,16.60
2009,08,15,16,52,16.60
2009,08,15,16,53,16.70
2009,08,15,16,54,16.70
2009,08,15,16,55,16.80
2009,08,15,16,56,16.90
2009,08,15,16,57,16.90
2009,08,15,16,58,16.90
2009,08,15,16,59,16.90
2009,08,15,17,00,16.90
2009,08,15,17,01,16.90
2009,08,15,17,02,16.90
2009,08,15,17,03,16.90
2009,08,15,17,04,17.00
2009,08,15,17,05,17.00
2009,08,15,17,06,17.00
2009,08,15,17,07,17.00
2009,08,15,17,08,17.00
2009,08,15,17,09,17.00
2009,08,15,17,10,16.90
2009,08,15,17,11,16.90
2009,08,15,17,12,16.90
2009,08,15,17,13,16.90
2009,08,15,17,14,16.90
2009,08,15,17,15,16.90
2009,08,15,17,16,16.90
2009,08,15,17,17,16.90
2009,08,15,17,18,17.00
2009,08,15,17,19,17.00
2009,08,15,17,20,17.00
2009,08,15,17,21,17.10
2009,08,15,17,22,17.20